timestamp,wind_dir_avg,wind_spd_avg,wind_spd_max_dir,wind_spd_gust,battery_voltage,lat,long
2023-12-03 00:04:00+00:00,52.0,4.13,59.0,4.52,12.25,47.59359,-54.27349
2023-12-03 00:14:01+00:00,51.0,5.35,53.0,6.05,12.25,47.59359,-54.27349
2023-12-03 00:24:01+00:00,50.0,4.57,56.0,5.23,12.25,47.59359,-54.27349
2023-12-03 00:34:01+00:00,50.0,4.75,46.0,5.41,12.25,47.59359,-54.27349
2023-12-03 00:44:01+00:00,42.0,4.41,43.0,5.19,12.25,47.59359,-54.27349
2023-12-03 00:54:01+00:00,47.0,4.47,53.0,5.4,12.25,47.59359,-54.27349
2023-12-03 01:04:01+00:00,45.0,5.08,44.0,5.85,12.25,47.59359,-54.27349
2023-12-03 01:14:01+00:00,40.0,5.85,43.0,6.99,12.17,47.59359,-54.27349
2023-12-03 01:24:01+00:00,47.0,5.74,43.0,6.3,12.17,47.59359,-54.27349
2023-12-03 01:34:01+00:00,43.0,5.34,35.0,6.13,12.17,47.59359,-54.27349
2023-12-03 01:44:01+00:00,45.0,6.2,49.0,7.25,12.17,47.59359,-54.27349
2023-12-03 01:54:01+00:00,46.0,6.21,38.0,6.97,12.17,47.59359,-54.27349
2023-12-03 02:04:01+00:00,48.0,5.66,46.0,6.33,12.17,47.59359,-54.27349
2023-12-03 02:14:00+00:00,50.0,6.27,48.0,6.9,12.25,47.59359,-54.27349
2023-12-03 02:24:00+00:00,45.0,5.62,47.0,6.54,12.25,47.59359,-54.27349
2023-12-03 02:34:00+00:00,54.0,4.65,37.0,6.12,12.25,47.59359,-54.27349
2023-12-03 02:44:00+00:00,50.0,6.6,50.0,7.03,12.25,47.59359,-54.27349
2023-12-03 02:54:00+00:00,52.0,5.66,50.0,6.56,12.25,47.59359,-54.27349
2023-12-03 03:04:00+00:00,52.0,6.63,47.0,7.32,12.25,47.59359,-54.27349
2023-12-03 03:14:01+00:00,44.0,6.26,49.0,7.15,12.25,47.59359,-54.27349
2023-12-03 03:24:01+00:00,43.0,6.81,38.0,7.88,12.25,47.59359,-54.27349
2023-12-03 03:34:01+00:00,46.0,6.59,55.0,7.97,12.25,47.59359,-54.27349
2023-12-03 03:44:01+00:00,44.0,6.73,40.0,7.53,12.25,47.59359,-54.27349
2023-12-03 03:54:01+00:00,49.0,6.76,51.0,7.62,12.25,47.59359,-54.27349
2023-12-03 04:04:01+00:00,50.0,6.77,58.0,8.92,12.25,47.59359,-54.27349
2023-12-03 04:14:00+00:00,44.0,6.45,38.0,7.56,12.25,47.59359,-54.27349
2023-12-03 04:24:00+00:00,53.0,6.77,59.0,7.74,12.25,47.59359,-54.27349
2023-12-03 04:34:00+00:00,52.0,6.97,55.0,8.63,12.25,47.59359,-54.27349
2023-12-03 04:44:00+00:00,53.0,6.47,54.0,7.75,12.25,47.59359,-54.27349
2023-12-03 04:54:00+00:00,46.0,6.27,50.0,7.57,12.25,47.59359,-54.27349
2023-12-03 05:04:00+00:00,51.0,6.05,52.0,6.86,12.25,47.59359,-54.27349
2023-12-03 05:14:00+00:00,52.0,6.04,59.0,6.97,12.17,47.59359,-54.27349
2023-12-03 05:24:00+00:00,51.0,5.98,55.0,6.69,12.17,47.59359,-54.27349
2023-12-03 05:34:00+00:00,45.0,6.24,52.0,7.43,12.17,47.59359,-54.27349
2023-12-03 05:44:00+00:00,54.0,6.37,64.0,8.85,12.17,47.59359,-54.27349
2023-12-03 05:54:00+00:00,50.0,5.62,46.0,6.38,12.17,47.59359,-54.27349
2023-12-03 06:04:00+00:00,45.0,6.22,51.0,7.01,12.17,47.59359,-54.27349
2023-12-03 06:14:00+00:00,48.0,6.5,55.0,8.73,12.17,47.59359,-54.27349
2023-12-03 06:24:00+00:00,44.0,6.63,52.0,8.28,12.17,47.59359,-54.27349
2023-12-03 06:34:00+00:00,38.0,6.65,37.0,7.79,12.17,47.59359,-54.27349
2023-12-03 06:44:00+00:00,33.0,6.7,31.0,7.47,12.17,47.59359,-54.27349
2023-12-03 06:54:00+00:00,30.0,7.22,33.0,8.32,12.17,47.59359,-54.27349
2023-12-03 07:04:00+00:00,32.0,7.66,32.0,8.8,12.17,47.59359,-54.27349
2023-12-03 07:14:00+00:00,30.0,7.47,30.0,8.21,12.17,47.59359,-54.27349
2023-12-03 07:24:00+00:00,25.0,7.85,23.0,8.51,12.17,47.59359,-54.27349
2023-12-03 07:34:00+00:00,29.0,8.13,29.0,8.8,12.17,47.59359,-54.27349
2023-12-03 07:44:00+00:00,31.0,7.87,32.0,8.64,12.17,47.59359,-54.27349
2023-12-03 07:54:00+00:00,21.0,7.38,29.0,8.35,12.17,47.59359,-54.27349
2023-12-03 08:04:00+00:00,27.0,6.96,26.0,7.64,12.17,47.59359,-54.27349
2023-12-03 08:14:00+00:00,34.0,7.05,35.0,7.87,12.17,47.59359,-54.27349
2023-12-03 08:24:00+00:00,33.0,7.48,37.0,8.87,12.17,47.59359,-54.27349
2023-12-03 08:34:00+00:00,32.0,7.29,30.0,8.39,12.17,47.59359,-54.27349
2023-12-03 08:44:00+00:00,31.0,7.12,28.0,8.03,12.17,47.59359,-54.27349
2023-12-03 08:54:00+00:00,33.0,7.15,34.0,7.76,12.17,47.59359,-54.27349
2023-12-03 09:04:00+00:00,30.0,7.03,29.0,7.95,12.17,47.59359,-54.27349
2023-12-03 09:14:01+00:00,31.0,6.96,34.0,7.98,12.17,47.59359,-54.27349
2023-12-03 09:24:01+00:00,28.0,6.78,23.0,7.66,12.17,47.59359,-54.27349
2023-12-03 09:34:01+00:00,31.0,7.08,32.0,7.79,12.17,47.59359,-54.27349
2023-12-03 09:44:01+00:00,36.0,6.59,34.0,7.2,12.17,47.59359,-54.27349
2023-12-03 09:54:01+00:00,34.0,6.83,28.0,7.73,12.17,47.59359,-54.27349
2023-12-03 10:04:01+00:00,32.0,6.58,36.0,7.35,12.17,47.59359,-54.27349
2023-12-03 10:14:00+00:00,35.0,6.6,30.0,7.07,12.17,47.59359,-54.27349
2023-12-03 10:24:00+00:00,25.0,6.92,26.0,7.58,12.17,47.59359,-54.27349
2023-12-03 10:34:00+00:00,16.0,5.83,32.0,7.08,12.17,47.59359,-54.27349
2023-12-03 10:44:00+00:00,26.0,6.81,25.0,7.53,12.17,47.59359,-54.27349
2023-12-03 10:54:00+00:00,29.0,7.19,31.0,8.38,12.17,47.59359,-54.27349
2023-12-03 11:04:00+00:00,23.0,6.15,29.0,6.95,12.17,47.59359,-54.27349
2023-12-03 11:14:00+00:00,1.0,5.31,21.0,6.31,12.17,47.59359,-54.27349
2023-12-03 11:24:00+00:00,0.0,4.73,356.0,5.67,12.17,47.59359,-54.27349
2023-12-03 11:34:00+00:00,0.0,5.32,2.0,6.16,12.17,47.59359,-54.27349
2023-12-03 11:44:00+00:00,34.0,5.55,33.0,6.22,12.17,47.59359,-54.27349
2023-12-03 11:54:00+00:00,31.0,5.7,31.0,6.37,12.17,47.59359,-54.27349
2023-12-03 12:04:00+00:00,1.0,4.38,30.0,5.19,12.17,47.59359,-54.27349
2023-12-03 12:14:00+00:00,25.0,4.75,35.0,5.86,12.17,47.59359,-54.27349
2023-12-03 12:24:00+00:00,357.0,5.08,358.0,6.13,12.17,47.59359,-54.27349
2023-12-03 12:34:00+00:00,359.0,5.59,351.0,6.51,12.17,47.59359,-54.27349
2023-12-03 12:44:00+00:00,25.0,6.34,30.0,7.31,12.17,47.59359,-54.27349
2023-12-03 12:54:00+00:00,19.0,5.38,28.0,6.15,12.17,47.59359,-54.27349
2023-12-03 13:04:00+00:00,2.0,5.37,8.0,6.37,12.17,47.59359,-54.27349
2023-12-03 13:14:00+00:00,25.0,6.34,27.0,6.99,12.57,47.59359,-54.27349
2023-12-03 13:24:00+00:00,0.0,5.64,3.0,7.13,12.57,47.59359,-54.27349
2023-12-03 13:34:00+00:00,355.0,6.05,0.0,6.95,12.57,47.59359,-54.27349
2023-12-03 13:44:00+00:00,356.0,6.22,354.0,7.0,12.57,47.59359,-54.27349
2023-12-03 13:54:00+00:00,7.0,6.12,6.0,7.08,12.57,47.59359,-54.27349
2023-12-03 14:04:00+00:00,359.0,5.72,2.0,7.01,12.57,47.59359,-54.27349
2023-12-03 14:14:00+00:00,16.0,4.59,17.0,5.77,13.05,47.59359,-54.27349
2023-12-03 14:24:00+00:00,6.0,4.87,3.0,5.68,13.05,47.59359,-54.27349
2023-12-03 14:34:00+00:00,6.0,4.91,2.0,5.68,13.05,47.59359,-54.27349
2023-12-03 14:44:00+00:00,6.0,4.35,3.0,5.28,13.05,47.59359,-54.27349
2023-12-03 14:54:00+00:00,6.0,5.34,5.0,6.17,13.05,47.59359,-54.27349
2023-12-03 15:04:00+00:00,7.0,4.08,3.0,4.92,13.05,47.59359,-54.27349
2023-12-03 15:14:00+00:00,36.0,3.62,38.0,4.3,13.76,47.59359,-54.27349
2023-12-03 15:24:00+00:00,38.0,2.65,38.0,3.32,13.76,47.59359,-54.27349
2023-12-03 15:34:00+00:00,23.0,2.12,39.0,3.27,13.76,47.59359,-54.27349
2023-12-03 15:44:00+00:00,357.0,3.01,2.0,4.02,13.76,47.59359,-54.27349
2023-12-03 15:54:00+00:00,15.0,3.69,33.0,5.1,13.76,47.59359,-54.27349
2023-12-03 16:04:00+00:00,5.0,5.2,9.0,5.89,13.76,47.59359,-54.27349
2023-12-03 16:14:00+00:00,1.0,6.03,8.0,6.93,13.76,47.59359,-54.27349
2023-12-03 16:24:00+00:00,6.0,5.57,6.0,6.7,13.76,47.59359,-54.27349
2023-12-03 16:34:00+00:00,0.0,5.09,5.0,6.25,13.76,47.59359,-54.27349
2023-12-03 16:44:00+00:00,2.0,5.92,359.0,7.18,13.76,47.59359,-54.27349
2023-12-03 16:54:00+00:00,3.0,5.23,8.0,6.09,13.76,47.59359,-54.27349
2023-12-03 17:04:00+00:00,10.0,6.19,20.0,7.48,13.76,47.59359,-54.27349
2023-12-03 17:14:00+00:00,6.0,6.74,16.0,8.05,14.4,47.59359,-54.27349
2023-12-03 17:24:00+00:00,6.0,5.26,359.0,7.25,14.4,47.59359,-54.27349
2023-12-03 17:34:00+00:00,0.0,6.73,7.0,7.85,14.4,47.59359,-54.27349
2023-12-03 17:44:00+00:00,7.0,6.95,4.0,8.32,14.4,47.59359,-54.27349
2023-12-03 17:54:00+00:00,6.0,6.39,6.0,7.87,14.4,47.59359,-54.27349
2023-12-03 18:04:00+00:00,17.0,7.2,17.0,8.08,14.4,47.59359,-54.27349
2023-12-03 18:14:00+00:00,4.0,6.44,5.0,7.48,14.4,47.59359,-54.27349
2023-12-03 18:24:00+00:00,11.0,5.84,15.0,7.65,14.4,47.59359,-54.27349
2023-12-03 18:34:00+00:00,3.0,6.58,8.0,7.86,14.4,47.59359,-54.27349
2023-12-03 18:44:00+00:00,6.0,5.68,9.0,6.65,14.4,47.59359,-54.27349
2023-12-03 18:54:00+00:00,13.0,6.33,10.0,7.47,14.4,47.59359,-54.27349
2023-12-03 19:04:00+00:00,11.0,5.81,10.0,6.8,14.4,47.59359,-54.27349
2023-12-03 19:14:00+00:00,8.0,5.13,26.0,7.11,13.68,47.59359,-54.27349
2023-12-03 19:24:00+00:00,11.0,5.07,11.0,6.21,13.68,47.59359,-54.27349
2023-12-03 19:34:00+00:00,16.0,5.93,24.0,7.41,13.68,47.59359,-54.27349
2023-12-03 19:44:00+00:00,11.0,5.19,8.0,6.25,13.68,47.59359,-54.27349
2023-12-03 19:54:00+00:00,342.0,4.04,341.0,4.73,13.68,47.59359,-54.27349
2023-12-03 20:04:00+00:00,347.0,4.94,341.0,5.95,13.68,47.59359,-54.27349
2023-12-03 20:14:00+00:00,3.0,4.38,4.0,4.82,12.65,47.59359,-54.27349
2023-12-03 20:24:00+00:00,13.0,3.8,15.0,4.52,12.65,47.59359,-54.27349
2023-12-03 20:34:00+00:00,2.0,3.98,2.0,4.94,12.65,47.59359,-54.27349
2023-12-03 20:44:00+00:00,348.0,3.76,346.0,4.46,12.65,47.59359,-54.27349
2023-12-03 20:54:00+00:00,342.0,3.71,336.0,4.63,12.65,47.59359,-54.27349
2023-12-03 21:04:00+00:00,1.0,3.44,13.0,4.44,12.65,47.59359,-54.27349
2023-12-03 21:14:00+00:00,358.0,3.97,340.0,4.53,12.49,47.59359,-54.27349
2023-12-03 21:24:00+00:00,9.0,4.05,14.0,4.55,12.49,47.59359,-54.27349
2023-12-03 21:34:00+00:00,11.0,3.35,13.0,4.15,12.49,47.59359,-54.27349
2023-12-03 21:44:00+00:00,4.0,3.67,5.0,4.35,12.49,47.59359,-54.27349
2023-12-03 21:54:00+00:00,14.0,2.89,346.0,3.44,12.49,47.59359,-54.27349
2023-12-03 22:04:00+00:00,5.0,2.26,346.0,3.14,12.49,47.59359,-54.27349
2023-12-03 22:14:00+00:00,7.0,1.72,11.0,2.15,12.41,47.59359,-54.27349
2023-12-03 22:24:00+00:00,358.0,2.47,339.0,3.52,12.41,47.59359,-54.27349
2023-12-03 22:34:00+00:00,334.0,2.35,341.0,2.73,12.41,47.59359,-54.27349
2023-12-03 22:44:00+00:00,291.0,1.33,292.0,1.64,12.41,47.59359,-54.27349
2023-12-03 22:54:00+00:00,312.0,1.39,316.0,1.64,12.41,47.59359,-54.27349
2023-12-03 23:04:00+00:00,357.0,0.88,338.0,1.33,12.41,47.59359,-54.27349
2023-12-03 23:14:00+00:00,18.0,1.88,47.0,3.18,12.41,47.59359,-54.27349
2023-12-03 23:24:00+00:00,31.0,3.89,38.0,4.79,12.41,47.59359,-54.27349
2023-12-03 23:34:00+00:00,26.0,6.43,30.0,7.38,12.41,47.59359,-54.27349
2023-12-03 23:44:00+00:00,15.0,5.54,25.0,6.39,12.41,47.59359,-54.27349
2023-12-03 23:54:00+00:00,2.0,3.45,354.0,3.83,12.41,47.59359,-54.27349
